This demonstration page uses our WeatherBlox Daily Observations layout. Learn more.

Left ArrowRight Arrow

Hourly Observations for December 7, 2015

Temp ( °F °C ) Dew Point ( °F °C ) Humidity (%) Winds ( mph kmh ) Pressure ( in mb ) Visibility ( mi km ) Precip ( " mm )
12:53 am 00:53 Mostly Clear 44 6.7 41 5 89 89 Calm 30.29 1026 10 16 0.00 0.00
1:53 am 01:53 Partly Cloudy 43 6.1 40 4.4 89 89 Calm 30.27 1025 10 16 0.00 0.00
2:53 am 02:53 Mostly Cloudy 45 7.2 41 5 86 86 Calm 30.26 1025 10 16 0.00 0.00
3:53 am 03:53 Mostly Cloudy 43 6.1 40 4.4 89 89 Calm 30.25 1024 10 16 0.00 0.00
4:53 am 04:53 Mostly Cloudy 44 6.7 40 4.4 85 85 Calm 30.24 1024 10 16 0.00 0.00
5:53 am 05:53 Partly Cloudy 46 7.8 41 5 83 83 Calm 30.23 1024 10 16 0.00 0.00
6:53 am 06:53 Clear 42 5.6 39 3.9 89 89 Calm 30.24 1024 8 13 0.00 0.00
7:53 am 07:53 Sunny 41 5 39 3.9 93 93 Calm 30.25 1024 7 11 0.00 0.00
8:53 am 08:53 Sunny 47 8.3 43 6.1 86 86 Calm 30.24 1024 10 16 0.00 0.00
9:53 am 09:53 Sunny 53 11.7 44 6.7 72 72 Calm 30.24 1024 10 16 0.00 0.00
10:53 am 10:53 Sunny 61 16.1 46 7.8 58 58 WNW 9 15 30.24 1024 10 16 0.00 0.00
11:53 am 11:53 Sunny 63 17.2 45 7.2 52 52 NW 10 17 30.21 1023 10 16 0.00 0.00
12:53 pm 12:53 Sunny 64 17.8 43 6.1 46 46 W 10 17 30.18 1022 10 16 0.00 0.00
1:53 pm 13:53 Sunny 65 18.3 42 5.6 43 43 WNW 14 22 30.15 1021 10 16 0.00 0.00
2:53 pm 14:53 Sunny 65 18.3 42 5.6 43 43 NW 9 15 30.12 1020 10 16 0.00 0.00
3:53 pm 15:53 Sunny 65 18.3 42 5.6 43 43 WNW 12 19 30.12 1020 10 16 0.00 0.00
4:53 pm 16:53 Sunny 63 17.2 41 5 45 45 WNW 9 15 30.12 1020 10 16 0.00 0.00
5:53 pm 17:53 Clear 58 14.4 42 5.6 56 56 WNW 5 7 30.13 1020 10 16 0.00 0.00
6:53 pm 18:53 Clear 55 12.8 42 5.6 62 62 Calm 30.14 1021 10 16 0.00 0.00
7:53 pm 19:53 Clear 48 8.9 41 5 77 77 NE 3 6 30.14 1021 10 16 0.00 0.00
8:53 pm 20:53 Clear 46 7.8 41 5 83 83 Calm 30.15 1021 10 16 0.00 0.00
9:53 pm 21:53 Clear 45 7.2 40 4.4 83 83 Calm 30.13 1020 10 16 0.00 0.00
10:53 pm 22:53 Clear 43 6.1 39 3.9 86 86 Calm 30.14 1021 10 16 0.00 0.00
11:53 pm 23:53 Clear 42 5.6 39 3.9 89 89 Calm 30.13 1020 10 16 0.00 0.00

Powered by AerisWeather